Greenville, MS

7:54 PM CDT on August 16, 2017 (GMT -0500)
Mid Delta Regional

Weather History for KGLH - August, 2012

Change the Weather History Date:

Thursday, August 2, 2012

  Actual Average Record
Temperature  
Mean Temperature 87 °F 82 °F  
Max Temperature 94 °F 92 °F 104 °F (2010)
Min Temperature 79 °F 72 °F 59 °F (1930)
Degree Days  
Heating Degree Days 0 0  
Month to date heating degree days 0 0  
Since 1 June heating degree days 0 0  
Since 1 July heating degree days 0 0  
Cooling Degree Days 22 17  
Month to date cooling degree days 46 34  
Year to date cooling degree days 1566 1303  
Since 1 June cooling degree days 1041 981  
Growing Degree Days 36 (Base 50)    
Moisture  
Dew Point 74 °F    
Average Humidity 66    
Maximum Humidity 85    
Minimum Humidity 46    
Precipitation  
Precipitation T in 0.06 in 1.96 in (1938)
Month to date precipitation T 0.12  
Year to date precipitation 22.32 32.22  
Sea Level Pressure  
Sea Level Pressure 29.87 in    
Wind  
Wind Speed 6 mph (South)    
Max Wind Speed 14 mph    
Max Gust Speed 35 mph    
Visibility 10 miles    
Events Rain    
T = Trace of Precipitation, MM = Missing Value Source: NWS Daily Summary

Daily Weather History Graph

Daily Weather History Graph

Search for Another Location

Airport or City:

Trip Planner

Search our weather history database for the weather conditions in past years. The results will help you decide how hot, cold, wet, or windy it might be!

Date:

Astronomy

Aug. 02, 2012 Rise Set
Actual Time 6:17 AM CDT 8:02 PM CDT
Civil Twilight 5:50 AM CDT 8:29 PM CDT
Nautical Twilight 5:17 AM CDT 9:01 PM CDT
Astronomical Twilight 4:43 AM CDT 9:36 PM CDT
Moon 8:15 PM CDT (8/2) 6:50 AM CDT (8/2)
Length of Visible Light 14h 39m
Length of Day
13h 44m
Full, 100% of the Moon is Illuminated
Aug 2
Full
Aug 9
Last Quarter
Aug 17
New
Aug 24
First Quarter
Aug 31
Full

Hourly Weather History & Observations

Time (CDT) Temp. Heat Index Dew Point Humidity Pressure Visibility Wind Dir Wind Speed Gust Speed Precip Events Conditions
12:53 AM 84.9 °F 94.1 °F 75.9 °F 74% 29.84 in 10.0 mi SSW 10.4 mph - N/A   Clear
1:53 AM 84.9 °F 92.1 °F 73.9 °F 69% 29.83 in 10.0 mi South 9.2 mph - N/A   Mostly Cloudy
2:53 AM 84.9 °F 91.4 °F 73.0 °F 67% 29.86 in 10.0 mi West 10.4 mph - N/A   Clear
3:53 AM 82.4 °F 88.2 °F 73.4 °F 74% 29.85 in 10.0 mi SSE 5.8 mph - N/A   Clear
4:53 AM 81.0 °F 86.2 °F 73.9 °F 79% 29.87 in 10.0 mi South 5.8 mph - N/A   Partly Cloudy
5:53 AM 80.1 °F 85.1 °F 75.0 °F 85% 29.88 in 10.0 mi South 4.6 mph - N/A   Clear
6:53 AM 81.0 °F 86.2 °F 73.9 °F 79% 29.91 in 10.0 mi SSW 5.8 mph - N/A   Partly Cloudy
7:53 AM 82.0 °F 88.6 °F 75.0 °F 79% 29.94 in 10.0 mi West 4.6 mph - 0.00 in Rain Light Rain
8:53 AM 82.0 °F 88.6 °F 75.0 °F 79% 29.94 in 10.0 mi WSW 4.6 mph - 0.00 in   Clear
9:53 AM 82.0 °F 88.6 °F 75.0 °F 79% 29.95 in 10.0 mi NNW 3.5 mph - N/A   Clear
10:53 AM 82.9 °F 90.2 °F 75.0 °F 77% 29.94 in 10.0 mi NW 5.8 mph - 0.00 in   Mostly Cloudy
11:53 AM 88.0 °F 92.9 °F 70.0 °F 55% 29.94 in 10.0 mi Variable 3.5 mph - N/A   Clear
12:53 PM 89.6 °F 96.2 °F 71.6 °F 55% 29.89 in 10.0 mi Calm Calm - N/A   Clear
1:53 PM 90.0 °F 99.0 °F 73.9 °F 59% 29.90 in 10.0 mi ESE 4.6 mph - N/A   Clear
2:53 PM 91.9 °F 99.5 °F 72.0 °F 52% 29.88 in 8.0 mi SSE 6.9 mph - N/A   Clear
3:53 PM 93.0 °F 99.0 °F 70.0 °F 47% 29.85 in 10.0 mi SSW 10.4 mph - N/A   Clear
4:53 PM 91.0 °F 96.6 °F 70.0 °F 50% 29.84 in 10.0 mi SSW 9.2 mph - N/A   Clear
5:53 PM 93.0 °F 100.1 °F 71.1 °F 49% 29.84 in 10.0 mi South 6.9 mph - N/A   Clear
6:53 PM 89.1 °F 98.0 °F 73.9 °F 61% 29.83 in 10.0 mi SSE 6.9 mph - N/A   Clear
7:53 PM 87.1 °F 96.3 °F 75.0 °F 67% 29.83 in 10.0 mi South 8.1 mph - N/A   Clear
8:53 PM 82.9 °F 90.2 °F 75.0 °F 77% 29.83 in 10.0 mi SSE 6.9 mph - N/A   Clear
9:53 PM 82.9 °F 90.2 °F 75.0 °F 77% 29.86 in 10.0 mi SSE 9.2 mph - N/A   Clear
10:53 PM 81.0 °F 86.7 °F 75.0 °F 82% 29.86 in 10.0 mi SSE 6.9 mph - N/A   Clear
11:53 PM 80.6 °F 86.2 °F 75.2 °F 84% 29.83 in 10.0 mi South 6.9 mph - N/A   Clear